Wind_Speed
65 66 66 65 65 64 64 65 65 63 62 64 66 69 71 72 73 74 74 74 74 74 73 72 72 71 71 70 70 70 70 70 69 69 67 66 65 63
66 66 64 63 63 63 63 64 64 63 61 62 66 68 70 71 71 69 68 66 65 64 63 62 61 61 60 61 62 63 64 65 66 67 68 67 66 64
64 63 62 62 61 61 61 62 63 64 63 62 64 66 66 65 63 61 58 56 54 52 50 49 48 48 49 49 50 52 54 56 58 61 64 66 66 64
61 61 60 60 60 60 61 61 62 63 62 62 60 59 58 55 53 50 47 45 42 40 39 38 38 39 39 40 41 42 44 46 49 52 56 61 64 64
58 58 58 58 59 59 60 60 60 61 60 58 54 51 48 45 43 41 39 36 33 31 30 31 32 32 33 34 35 35 36 38 41 44 48 53 58 61
56 56 57 57 58 58 58 57 57 56 53 49 45 41 39 37 36 33 31 30 29 27 26 26 27 28 29 30 31 32 32 33 35 38 42 47 52 57
55 56 56 56 56 55 55 54 51 48 43 39 35 33 31 30 29 28 27 27 27 26 24 24 24 24 25 26 27 27 28 29 30 33 36 41 46 52
54 54 54 54 53 52 50 47 43 38 33 29 28 28 27 27 27 27 26 25 25 25 24 23 22 21 22 22 22 23 24 25 27 29 32 36 41 47
51 51 51 50 47 44 40 37 34 29 26 25 25 25 26 27 27 27 26 25 24 24 22 21 21 20 19 19 19 18 19 20 23 26 28 32 37 42
47 46 44 41 37 34 31 28 25 24 23 23 24 26 27 27 27 26 25 24 23 23 21 20 20 19 17 16 15 16 16 16 18 21 25 28 32 37
42 39 35 31 28 24 21 20 19 20 21 23 25 26 26 26 25 23 21 20 20 19 18 17 16 16 15 13 12 12 12 13 14 16 20 24 29 33
34 31 26 22 19 16 15 15 16 18 21 23 24 25 24 23 21 19 18 17 16 15 15 14 13 12 12 11 10 9 9 10 12 14 17 21 25 29
26 23 18 14 12 11 11 13 15 17 19 21 22 22 21 19 17 16 15 15 14 14 12 11 10 9 9 9 8 8 8 8 9 11 14 18 22 26
18 14 11 8 7 8 10 12 14 17 19 20 21 21 20 18 17 16 15 15 15 14 13 11 9 7 6 6 6 6 6 6 7 9 11 15 20 24
10 7 5 5 6 7 10 12 14 17 19 20 21 21 20 18 17 17 17 17 17 16 15 13 11 8 6 4 3 3 3 4 5 7 10 13 17 22
4 3 3 4 6 8 10 11 14 17 19 21 22 21 21 19 18 18 19 19 19 18 16 14 13 10 7 5 2 1 1 2 3 5 8 11 15 20
3 4 5 5 7 8 10 12 14 17 20 22 23 22 21 21 20 19 20 21 21 20 18 16 14 12 10 8 6 5 5 4 5 6 8 11 15 19
6 6 6 7 8 9 11 13 15 17 20 22 23 23 22 22 22 22 22 23 24 22 21 19 17 15 14 12 10 9 9 9 9 9 10 12 15 18
8 8 8 8 9 10 12 13 15 18 20 22 23 24 24 23 23 23 24 25 26 26 25 23 21 19 19 17 14 13 14 14 14 14 14 14 15 17
9 9 9 9 10 11 13 14 16 18 20 22 23 24 24 24 24 24 25 26 27 28 27 26 24 24 22 20 18 18 18 19 18 17 17 16 16 17
10 10 10 10 11 12 13 15 17 19 20 22 23 24 24 25 25 25 25 26 28 28 28 27 27 27 26 24 21 20 21 21 21 21 20 19 19 19
10 11 11 11 11 13 14 15 17 19 20 22 23 24 24 25 25 26 26 26 27 27 27 27 28 28 27 25 23 22 22 22 22 22 23 22 21 21
11 11 11 12 12 13 14 16 17 19 20 22 23 24 25 25 25 26 26 26 26 26 27 28 28 27 26 25 23 23 23 23 22 21 22 23 23 22
Wind_Direction
296 296 296 296 296 295 294 293 292 291 290 288 287 287 288 288 288 288 287 286 284 283 280 278 276 274 271 269 266 263 260 256 252 248 245 243 241 241
296 296 296 296 296 295 295 294 294 293 292 291 290 289 289 290 290 290 290 288 286 284 281 278 275 273 270 268 265 261 258 254 250 247 243 240 238 237
296 296 296 296 296 296 296 296 296 295 295 294 293 293 293 292 293 293 292 291 289 286 283 279 276 273 270 268 265 261 258 254 250 246 241 237 235 234
296 296 296 296 297 297 298 297 297 297 297 297 296 295 295 295 295 295 295 295 292 288 285 281 278 275 273 270 267 263 259 255 250 245 240 236 233 231
297 297 298 298 298 298 298 298 298 298 299 299 299 298 297 296 297 297 297 296 295 292 288 284 281 278 275 271 267 264 261 256 251 245 240 235 232 230
298 299 299 299 298 298 299 299 300 300 301 302 301 300 299 300 300 300 299 298 297 295 292 288 284 281 278 274 270 266 262 256 250 245 239 234 231 228
299 299 299 299 299 299 300 300 301 302 302 302 302 301 303 303 304 304 303 301 299 298 296 292 288 284 279 276 272 267 261 256 249 242 237 233 229 227
299 299 300 300 301 301 302 303 304 304 304 304 304 305 306 306 307 307 305 303 300 299 298 295 291 287 283 279 275 269 262 255 247 240 235 231 227 225
299 299 300 302 303 304 304 305 306 308 309 309 310 311 311 310 309 309 307 304 301 297 295 294 293 291 288 282 276 270 264 256 246 237 232 228 225 223
300 301 302 304 305 305 305 306 309 312 313 314 316 317 317 316 313 311 308 306 302 299 297 292 290 291 291 286 279 272 264 256 246 236 229 224 222 220
302 303 305 306 305 304 306 309 312 315 318 320 321 322 322 320 319 317 314 312 308 304 301 296 290 288 287 286 284 275 264 253 243 234 226 221 218 217
304 306 307 306 305 307 311 316 319 322 325 327 327 328 328 328 329 329 328 327 324 317 310 306 298 290 286 285 282 278 266 252 241 233 224 218 215 213
306 307 309 311 313 318 323 327 330 333 334 336 339 343 344 344 345 347 347 346 347 345 338 329 318 304 292 287 282 275 265 252 240 230 223 216 212 209
306 308 313 321 329 334 338 340 342 345 348 351 355 357 358 360 3 4 5 5 5 5 5 2 353 338 316 298 285 274 259 246 235 224 216 211 207 205
309 318 334 346 351 353 352 352 355 359 1 4 5 7 10 14 17 18 19 19 17 15 13 13 11 8 357 333 300 272 246 231 224 212 204 200 199 198
329 7 28 24 14 7 6 8 10 11 13 13 13 15 17 21 23 24 24 22 21 20 19 19 20 21 22 23 26 73 170 186 187 185 184 186 187 188
72 70 57 41 26 23 23 23 21 21 19 18 19 21 23 27 28 28 27 27 28 27 27 28 31 36 42 49 63 79 92 108 129 146 161 170 174 176
84 74 63 49 41 41 37 33 30 28 25 24 24 26 29 31 33 34 35 35 35 36 37 39 42 47 53 60 75 87 91 96 106 118 133 147 159 166
83 75 66 56 54 50 45 41 38 34 31 29 30 31 33 35 37 38 38 38 39 42 44 46 49 53 58 65 77 90 94 95 98 105 116 127 140 152
80 74 66 63 63 57 52 50 45 39 35 34 35 35 37 38 40 41 41 43 45 47 48 50 55 59 63 69 78 89 96 97 97 100 105 111 121 134
78 73 70 71 70 63 59 55 49 44 41 39 39 40 42 43 44 44 45 47 49 51 52 55 59 63 67 71 78 87 94 98 99 100 102 104 109 118
77 74 75 77 75 69 65 60 54 50 47 44 44 46 47 48 49 49 49 51 53 56 58 61 62 65 69 73 79 84 89 93 96 100 103 104 106 111
77 77 80 83 80 76 71 65 60 55 51 49 50 51 51 52 52 52 52 54 56 58 61 63 64 67 70 74 80 84 88 90 92 96 102 106 107 111
Height
5710 5704 5699 5692 5686 5680 5674 5669 5665 5663 5659 5650 5639 5629 5620 5614 5607 5602 5597 5592 5587 5582 5579 5577 5575 5574 5573 5574 5575 5577 5580 5585 5590 5596 5604 5611 5619 5626
5694 5688 5682 5676 5670 5663 5657 5650 5644 5640 5638 5631 5621 5612 5603 5595 5588 5582 5576 5570 5564 5559 5556 5553 5551 5550 5550 5550 5551 5553 5556 5559 5565 5572 5581 5589 5598 5607
5678 5672 5666 5660 5654 5647 5640 5633 5626 5620 5617 5612 5602 5593 5584 5577 5570 5563 5557 5551 5546 5541 5537 5534 5533 5532 5531 5531 5531 5533 5535 5539 5543 5550 5558 5568 5578 5589
5663 5657 5651 5644 5638 5631 5624 5617 5609 5602 5597 5594 5586 5576 5568 5560 5555 5549 5542 5536 5531 5527 5523 5521 5519 5518 5517 5517 5517 5518 5519 5522 5526 5532 5539 5549 5560 5569
5648 5642 5635 5629 5623 5616 5609 5602 5595 5587 5580 5575 5569 5561 5554 5547 5542 5536 5530 5525 5520 5516 5513 5511 5509 5507 5506 5505 5505 5506 5507 5509 5513 5517 5523 5531 5542 5553
5633 5627 5621 5615 5609 5602 5595 5588 5581 5574 5567 5561 5555 5549 5543 5536 5531 5526 5522 5517 5512 5509 5506 5503 5500 5499 5497 5496 5496 5496 5497 5498 5500 5505 5510 5518 5527 5538
5619 5613 5607 5601 5595 5588 5582 5575 5568 5562 5556 5550 5545 5539 5534 5528 5523 5519 5514 5510 5506 5502 5499 5496 5493 5491 5489 5488 5487 5487 5487 5488 5491 5494 5500 5506 5515 5525
5606 5599 5593 5588 5582 5576 5569 5563 5557 5552 5547 5542 5537 5532 5527 5522 5517 5512 5508 5504 5500 5496 5493 5490 5486 5485 5482 5481 5480 5479 5479 5480 5483 5486 5491 5497 5505 5514
5594 5588 5582 5576 5571 5565 5559 5553 5548 5543 5539 5535 5531 5526 5521 5517 5512 5507 5502 5497 5493 5490 5487 5484 5481 5479 5477 5475 5474 5474 5473 5474 5476 5479 5483 5489 5496 5505
5583 5578 5572 5567 5562 5557 5552 5548 5543 5539 5535 5530 5526 5521 5516 5510 5505 5500 5495 5491 5487 5483 5480 5478 5475 5474 5472 5470 5469 5469 5469 5470 5471 5473 5477 5482 5489 5497
5573 5568 5564 5559 5555 5551 5547 5544 5540 5536 5531 5527 5522 5516 5511 5505 5499 5494 5490 5485 5482 5478 5475 5473 5471 5469 5468 5467 5466 5465 5465 5466 5467 5469 5473 5477 5483 5490
5564 5560 5557 5553 5550 5547 5544 5541 5537 5534 5529 5524 5518 5512 5506 5501 5495 5490 5486 5482 5477 5474 5471 5468 5466 5465 5464 5463 5463 5462 5462 5463 5464 5466 5469 5473 5479 5485
5557 5554 5551 5549 5547 5544 5542 5539 5536 5532 5527 5522 5516 5510 5504 5498 5493 5488 5484 5480 5476 5472 5468 5466 5464 5462 5461 5461 5461 5460 5460 5461 5462 5464 5466 5470 5475 5481
5552 5550 5548 5547 5545 5543 5541 5538 5534 5530 5525 5520 5514 5508 5503 5497 5492 5488 5484 5480 5476 5472 5468 5465 5462 5461 5460 5459 5459 5459 5459 5459 5460 5462 5464 5467 5471 5477
5549 5548 5547 5546 5544 5543 5541 5538 5534 5530 5525 5520 5514 5509 5503 5498 5493 5489 5485 5481 5477 5472 5469 5465 5463 5461 5459 5458 5458 5458 5458 5459 5459 5461 5463 5465 5469 5474
5548 5547 5547 5546 5545 5543 5541 5538 5534 5530 5526 5521 5515 5510 5504 5499 5495 5491 5487 5483 5478 5474 5470 5467 5464 5461 5460 5458 5458 5458 5458 5459 5459 5461 5462 5465 5468 5473
5548 5548 5548 5547 5546 5544 5541 5538 5535 5531 5527 5522 5517 5512 5507 5502 5498 5493 5489 5485 5480 5476 5472 5469 5466 5463 5461 5460 5459 5459 5459 5460 5461 5462 5464 5466 5469 5474
5549 5549 5549 5548 5547 5545 5543 5540 5537 5534 5530 5525 5520 5515 5510 5505 5501 5497 5493 5489 5484 5479 5475 5471 5468 5466 5464 5463 5462 5462 5463 5463 5464 5465 5466 5469 5472 5476
5551 5551 5550 5549 5548 5547 5545 5542 5540 5536 5533 5528 5523 5519 5514 5510 5506 5502 5498 5494 5489 5484 5480 5476 5473 5470 5468 5467 5467 5467 5468 5468 5469 5471 5472 5474 5477 5480
5553 5553 5552 5551 5550 5549 5547 5545 5543 5540 5536 5532 5528 5523 5519 5515 5511 5507 5503 5499 5495 5490 5486 5483 5480 5477 5475 5474 5474 5474 5474 5475 5476 5478 5479 5481 5483 5486
5556 5555 5555 5554 5553 5552 5550 5549 5546 5544 5540 5537 5533 5529 5525 5521 5517 5513 5509 5506 5502 5498 5495 5492 5488 5485 5483 5483 5483 5483 5482 5483 5484 5485 5487 5489 5492 5495
5558 5558 5557 5557 5556 5555 5554 5552 5550 5548 5545 5542 5538 5534 5531 5527 5523 5520 5516 5513 5510 5507 5503 5500 5497 5495 5494 5493 5493 5492 5492 5492 5493 5494 5495 5498 5501 5503
5561 5561 5560 5560 5560 5559 5558 5556 5555 5553 5550 5547 5544 5540 5537 5534 5530 5527 5524 5521 5518 5515 5512 5509 5507 5505 5504 5503 5503 5502 5502 5502 5503 5505 5505 5506 5509 5512